Location: Neu-Ulm
(48.3873°N, 10.0192°E)
Time: 03:01:29
(UTC+01:00)

N. Korean satellite - Visible Passes

Search period start: 20 February 2018 00:00
Search period end: 02 March 2018 00:00
Orbit: 459 x 514 km, 97.2° (Epoch: 19 February)

Date Brightness Start Highest point End Pass type
(mag) Time Alt. Az. Time Alt. Az. Time Alt. Az.
20 Feb 8.2 06:42:50 10° NNE 06:46:19 41° E 06:49:49 10° S visible
20 Feb 9.4 18:56:40 10° SSW 18:59:26 22° W 19:02:13 10° NW visible
21 Feb 9.5 06:19:30 10° NE 06:22:27 23° E 06:25:27 10° SSE visible
21 Feb 8.0 18:32:16 10° S 18:35:33 41° W 18:38:54 10° NNW visible
22 Feb 10.3 05:56:46 10° ENE 05:58:31 13° E 06:00:17 10° ESE visible
23 Feb 10.2 19:20:17 10° WSW 19:21:52 13° W 19:23:29 10° WNW visible
24 Feb 9.4 18:55:05 10° SSW 18:57:55 23° W 19:00:46 10° NW visible
25 Feb 9.6 06:18:00 10° NE 06:20:58 22° E 06:23:56 10° SSE visible
25 Feb 8.0 18:30:42 10° S 18:34:01 43° W 18:37:25 10° NNW visible
26 Feb 10.4 05:55:18 10° ENE 05:57:00 13° E 05:58:44 10° ESE visible
27 Feb 10.1 19:18:33 10° WSW 19:20:18 13° W 19:22:05 10° WNW visible
28 Feb 9.3 18:53:27 10° SSW 18:56:20 24° W 18:59:17 10° NW visible
01 Mar 9.7 06:16:28 10° NE 06:19:25 22° E 06:22:23 10° SE visible
